AAL2096 KBOS-KPHL

Flight info

Callsign AAL2096
Flight time 1h 3m
Altitude 28000
Route SSOXS7 SSOXS Q167 RIFLE Q439 BRIGS JIIMS4
Aircraft A319/M-SDE3FGHIRWY/LB1

Departure

Time 2026-05-04 12:20
Airport Boston Logan International Airport (KBOS)

Arrival

Time 2026-05-04 13:23
Airport Philadelphia International Airport (KPHL)
Time Latitude Longitude Altitude Speed Heading
2026-05-04 11:46 42.36128 -71.02080 28 ft 0 kts 347°
2026-05-04 12:06 42.36125 -71.02079 35 ft 3 kts 347°
2026-05-04 12:06 42.36099 -71.02071 26 ft 4 kts 347°
2026-05-04 12:07 42.36072 -71.02064 28 ft 4 kts
2026-05-04 12:07 42.36049 -71.02070 28 ft 4 kts 29°
2026-05-04 12:07 42.36040 -71.02092 29 ft 4 kts 118°
2026-05-04 12:07 42.36034 -71.02080 30 ft 4 kts 121°
2026-05-04 12:08 42.36024 -71.02058 28 ft 0 kts 121°
2026-05-04 12:11 42.36018 -71.02043 29 ft 3 kts 121°
2026-05-04 12:11 42.36003 -71.02010 28 ft 5 kts 121°
2026-05-04 12:12 42.35981 -71.01959 28 ft 7 kts 121°
2026-05-04 12:12 42.35951 -71.01892 25 ft 9 kts 121°
2026-05-04 12:12 42.35919 -71.01804 26 ft 11 kts 107°
2026-05-04 12:12 42.35901 -71.01695 26 ft 11 kts 102°
2026-05-04 12:13 42.35936 -71.01626 27 ft 11 kts 17°
2026-05-04 12:14 42.36546 -71.01316 27 ft 13 kts 25°
2026-05-04 12:15 42.36634 -71.01273 26 ft 14 kts 15°
2026-05-04 12:15 42.36731 -71.01242 27 ft 14 kts
2026-05-04 12:15 42.36818 -71.01286 29 ft 14 kts 357°
2026-05-04 12:15 42.36896 -71.01212 26 ft 14 kts 41°
2026-05-04 12:16 42.36974 -71.01124 26 ft 15 kts 36°
2026-05-04 12:16 42.37062 -71.01062 28 ft 15 kts 25°
2026-05-04 12:16 42.37160 -71.00998 28 ft 17 kts 26°
2026-05-04 12:16 42.37269 -71.00927 25 ft 18 kts 25°
2026-05-04 12:17 42.37391 -71.00864 27 ft 20 kts 20°
2026-05-04 12:17 42.37525 -71.00799 27 ft 21 kts 19°
2026-05-04 12:17 42.37670 -71.00729 26 ft 23 kts 19°
2026-05-04 12:17 42.37788 -71.00672 27 ft 10 kts 20°
2026-05-04 12:18 42.37837 -71.00602 28 ft 12 kts 86°
2026-05-04 12:18 42.37812 -71.00498 28 ft 8 kts 110°
2026-05-04 12:18 42.37806 -71.00482 27 ft 1 kts 130°
2026-05-04 12:18 42.37791 -71.00478 26 ft 3 kts 177°
2026-05-04 12:19 42.37764 -71.00488 26 ft 5 kts 200°
2026-05-04 12:19 42.37710 -71.00513 28 ft 16 kts 199°
2026-05-04 12:19 42.37344 -71.00691 28 ft 94 kts 199°
2026-05-04 12:19 42.36522 -71.01088 64 ft 150 kts 199°
2026-05-04 12:20 42.35553 -71.01557 740 ft 148 kts 202°
2026-05-04 12:20 42.34517 -71.01777 1462 ft 161 kts 180°
2026-05-04 12:20 42.33460 -71.00971 1976 ft 200 kts 141°
2026-05-04 12:20 42.32556 -70.99390 2426 ft 225 kts 133°
2026-05-04 12:21 42.31640 -70.97544 3088 ft 245 kts 120°
2026-05-04 12:21 42.31238 -70.95265 3951 ft 260 kts 92°
2026-05-04 12:21 42.31504 -70.92741 4506 ft 282 kts 76°
2026-05-04 12:21 42.31919 -70.90089 5299 ft 295 kts 76°
2026-05-04 12:22 42.32345 -70.87330 6190 ft 302 kts 76°
2026-05-04 12:22 42.32761 -70.84541 7234 ft 304 kts 77°
2026-05-04 12:22 42.33037 -70.81694 8184 ft 310 kts 90°
2026-05-04 12:22 42.32748 -70.78788 9097 ft 315 kts 106°
2026-05-04 12:23 42.31977 -70.76023 10050 ft 316 kts 119°
2026-05-04 12:23 42.30956 -70.73316 10607 ft 334 kts 123°
2026-05-04 12:23 42.29581 -70.70682 10987 ft 352 kts 135°
2026-05-04 12:23 42.27771 -70.68430 11661 ft 356 kts 148°
2026-05-04 12:24 42.25640 -70.66748 12441 ft 355 kts 162°
2026-05-04 12:24 42.23662 -70.65686 13090 ft 358 kts 165°
2026-05-04 12:24 42.21304 -70.64536 13880 ft 362 kts 167°
2026-05-04 12:25 42.18909 -70.63460 14582 ft 365 kts 168°
2026-05-04 12:25 42.16452 -70.62564 15292 ft 364 kts 176°
2026-05-04 12:25 42.13951 -70.62297 16015 ft 360 kts 187°
2026-05-04 12:25 42.11468 -70.62618 16740 ft 357 kts 197°
2026-05-04 12:26 42.09080 -70.63481 17453 ft 355 kts 204°
2026-05-04 12:26 42.06743 -70.64507 18165 ft 359 kts 204°
2026-05-04 12:26 42.04356 -70.65556 18794 ft 363 kts 204°
2026-05-04 12:26 42.01948 -70.66613 19417 ft 366 kts 204°
2026-05-04 12:27 41.99513 -70.67682 20056 ft 370 kts 204°
2026-05-04 12:27 41.97059 -70.68762 20684 ft 373 kts 204°
2026-05-04 12:27 41.94584 -70.69853 21311 ft 376 kts 204°
2026-05-04 12:27 41.92086 -70.70950 21928 ft 380 kts 204°
2026-05-04 12:28 41.89561 -70.72059 22543 ft 383 kts 204°
2026-05-04 12:28 41.87877 -70.72797 22937 ft 385 kts 204°
2026-05-04 12:28 41.85319 -70.73917 23518 ft 389 kts 204°
2026-05-04 12:28 41.82827 -70.75288 23998 ft 386 kts 212°
2026-05-04 12:29 41.80478 -70.77031 24502 ft 386 kts 214°
2026-05-04 12:29 41.78131 -70.78796 25002 ft 388 kts 214°
2026-05-04 12:29 41.75775 -70.80567 25504 ft 390 kts 215°
2026-05-04 12:29 41.73401 -70.82349 25993 ft 391 kts 215°
2026-05-04 12:30 41.71021 -70.84134 26473 ft 393 kts 215°
2026-05-04 12:30 41.68631 -70.85926 26942 ft 395 kts 215°
2026-05-04 12:30 41.66234 -70.87725 27413 ft 396 kts 215°
2026-05-04 12:30 41.63822 -70.89533 27851 ft 398 kts 215°
2026-05-04 12:31 41.61403 -70.91339 27966 ft 394 kts 215°
2026-05-04 12:31 41.59039 -70.93094 27980 ft 386 kts 215°
2026-05-04 12:31 41.56732 -70.94896 27981 ft 380 kts 220°
2026-05-04 12:31 41.54701 -70.97092 27978 ft 373 kts 229°
2026-05-04 12:32 41.53003 -70.99678 27975 ft 368 kts 238°
2026-05-04 12:32 41.50161 -71.05334 27974 ft 367 kts 240°
2026-05-04 12:32 41.48743 -71.08162 27976 ft 367 kts 240°
2026-05-04 12:33 41.47324 -71.10988 27987 ft 367 kts 240°
2026-05-04 12:33 41.45903 -71.13814 27975 ft 367 kts 240°
2026-05-04 12:33 41.44482 -71.16637 27973 ft 367 kts 240°
2026-05-04 12:33 41.43063 -71.19459 27977 ft 367 kts 240°
2026-05-04 12:34 41.41643 -71.22282 27969 ft 367 kts 240°
2026-05-04 12:34 41.40224 -71.25104 27967 ft 367 kts 240°
2026-05-04 12:34 41.38805 -71.27927 27977 ft 367 kts 240°
2026-05-04 12:34 41.37382 -71.30747 27974 ft 367 kts 240°
2026-05-04 12:35 41.35956 -71.33564 27971 ft 367 kts 240°
2026-05-04 12:35 41.34530 -71.36381 27989 ft 367 kts 240°
2026-05-04 12:35 41.33107 -71.39193 27987 ft 367 kts 240°
2026-05-04 12:35 41.31724 -71.41931 27996 ft 367 kts 240°
2026-05-04 12:36 41.30259 -71.44827 28000 ft 367 kts 239°
2026-05-04 12:36 41.28860 -71.47592 27996 ft 367 kts 239°
2026-05-04 12:36 41.27409 -71.50458 28000 ft 367 kts 239°
2026-05-04 12:36 41.25983 -71.53267 27994 ft 367 kts 239°
2026-05-04 12:37 41.24554 -71.56085 28008 ft 367 kts 239°
2026-05-04 12:37 41.21698 -71.61705 28005 ft 367 kts 239°
2026-05-04 12:37 41.20266 -71.64516 27999 ft 367 kts 239°
2026-05-04 12:38 41.18834 -71.67324 28000 ft 367 kts 239°
2026-05-04 12:38 41.17400 -71.70132 27998 ft 367 kts 239°
2026-05-04 12:38 41.15967 -71.72938 27998 ft 367 kts 239°
2026-05-04 12:38 41.14533 -71.75745 27999 ft 367 kts 239°
2026-05-04 12:39 41.13102 -71.78550 28003 ft 367 kts 239°
2026-05-04 12:39 41.10242 -71.84169 28005 ft 367 kts 239°
2026-05-04 12:40 41.07383 -71.89791 28003 ft 368 kts 239°
2026-05-04 12:40 41.04536 -71.95368 28002 ft 368 kts 239°
2026-05-04 12:41 41.02106 -72.01320 28005 ft 364 kts 248°
2026-05-04 12:41 40.99974 -72.07407 28002 ft 364 kts 248°
2026-05-04 12:42 40.97845 -72.13450 28004 ft 365 kts 248°
2026-05-04 12:42 40.95692 -72.19526 28006 ft 365 kts 248°
2026-05-04 12:43 40.93533 -72.25603 28005 ft 365 kts 247°
2026-05-04 12:43 40.91114 -72.31511 28005 ft 369 kts 237°
2026-05-04 12:44 40.87536 -72.36458 28004 ft 373 kts 229°
2026-05-04 12:44 40.83841 -72.41277 28015 ft 374 kts 229°
2026-05-04 12:44 40.81992 -72.43690 27988 ft 375 kts 229°
2026-05-04 12:45 40.80103 -72.46136 27724 ft 387 kts 227°
2026-05-04 12:45 40.78018 -72.48446 27483 ft 394 kts 224°
2026-05-04 12:45 40.75899 -72.50743 27237 ft 394 kts 224°
2026-05-04 12:45 40.73776 -72.53031 27006 ft 394 kts 224°
2026-05-04 12:46 40.71660 -72.55310 26762 ft 393 kts 224°
2026-05-04 12:46 40.69545 -72.57590 26520 ft 392 kts 224°
2026-05-04 12:46 40.67574 -72.60036 26290 ft 388 kts 229°
2026-05-04 12:46 40.65664 -72.62553 26057 ft 388 kts 229°
2026-05-04 12:47 40.63761 -72.65060 25828 ft 387 kts 229°
2026-05-04 12:47 40.61856 -72.67561 25599 ft 386 kts 229°
2026-05-04 12:47 40.59953 -72.70046 25361 ft 386 kts 229°
2026-05-04 12:47 40.58050 -72.72527 25119 ft 385 kts 229°
2026-05-04 12:48 40.56146 -72.75002 24866 ft 384 kts 229°
2026-05-04 12:48 40.54247 -72.77465 24619 ft 383 kts 229°
2026-05-04 12:48 40.52355 -72.79925 24379 ft 383 kts 229°
2026-05-04 12:48 40.50437 -72.82357 24137 ft 383 kts 227°
2026-05-04 12:49 40.48491 -72.84736 23898 ft 382 kts 226°
2026-05-04 12:49 40.46526 -72.87090 23669 ft 382 kts 226°
2026-05-04 12:49 40.44555 -72.89432 23387 ft 381 kts 226°
2026-05-04 12:49 40.42591 -72.91759 23104 ft 380 kts 226°
2026-05-04 12:50 40.40635 -72.94084 22835 ft 378 kts 226°
2026-05-04 12:50 40.38694 -72.96401 22566 ft 377 kts 226°
2026-05-04 12:50 40.36759 -72.98717 22285 ft 376 kts 226°
2026-05-04 12:50 40.34836 -73.01029 22003 ft 374 kts 226°
2026-05-04 12:51 40.32922 -73.03330 21744 ft 373 kts 226°
2026-05-04 12:51 40.31013 -73.05625 21477 ft 371 kts 226°
2026-05-04 12:51 40.29116 -73.07907 21217 ft 370 kts 226°
2026-05-04 12:51 40.27223 -73.10183 20959 ft 369 kts 226°
2026-05-04 12:52 40.25334 -73.12448 20698 ft 368 kts 226°
2026-05-04 12:52 40.23451 -73.14706 20445 ft 366 kts 226°
2026-05-04 12:52 40.21579 -73.16951 20189 ft 365 kts 226°
2026-05-04 12:52 40.19708 -73.19191 20032 ft 364 kts 226°
2026-05-04 12:53 40.17841 -73.21420 20061 ft 364 kts 226°
2026-05-04 12:53 40.15966 -73.23655 20055 ft 365 kts 226°
2026-05-04 12:53 40.14089 -73.25889 20064 ft 365 kts 226°
2026-05-04 12:53 40.12214 -73.28120 20062 ft 365 kts 226°
2026-05-04 12:54 40.10338 -73.30354 20064 ft 365 kts 226°
2026-05-04 12:54 40.08466 -73.32586 20062 ft 365 kts 226°
2026-05-04 12:54 40.06589 -73.34821 20066 ft 365 kts 226°
2026-05-04 12:54 40.04712 -73.37050 20064 ft 365 kts 226°
2026-05-04 12:55 40.02829 -73.39275 20063 ft 365 kts 226°
2026-05-04 12:55 40.00949 -73.41496 20062 ft 365 kts 226°
2026-05-04 12:55 39.99066 -73.43719 20061 ft 365 kts 226°
2026-05-04 12:55 39.97185 -73.45942 20066 ft 365 kts 226°
2026-05-04 12:56 39.95300 -73.48170 20060 ft 365 kts 226°
2026-05-04 12:56 39.93418 -73.50395 20064 ft 365 kts 226°
2026-05-04 12:56 39.91535 -73.52620 20063 ft 366 kts 226°
2026-05-04 12:56 39.89732 -73.54939 20065 ft 363 kts 233°
2026-05-04 12:57 39.88136 -73.57481 20062 ft 362 kts 234°
2026-05-04 12:57 39.86541 -73.60020 20066 ft 362 kts 234°
2026-05-04 12:57 39.84947 -73.62553 20069 ft 362 kts 234°
2026-05-04 12:57 39.83347 -73.65091 20067 ft 362 kts 234°
2026-05-04 12:58 39.81747 -73.67630 20069 ft 362 kts 234°
2026-05-04 12:58 39.80148 -73.70165 20070 ft 363 kts 234°
2026-05-04 12:58 39.78547 -73.72699 20071 ft 363 kts 234°
2026-05-04 12:58 39.76948 -73.75227 20071 ft 363 kts 234°
2026-05-04 12:59 39.75343 -73.77759 20069 ft 363 kts 234°
2026-05-04 12:59 39.73742 -73.80287 20071 ft 363 kts 234°
2026-05-04 12:59 39.72150 -73.82804 19900 ft 356 kts 234°
2026-05-04 12:59 39.70593 -73.85261 19645 ft 348 kts 234°
2026-05-04 13:00 39.69066 -73.87666 19244 ft 344 kts 234°
2026-05-04 13:00 39.67550 -73.90051 18794 ft 341 kts 234°
2026-05-04 13:00 39.66044 -73.92421 18336 ft 339 kts 234°
2026-05-04 13:00 39.64548 -73.94774 17798 ft 338 kts 233°
2026-05-04 13:01 39.63056 -73.97110 17340 ft 334 kts 233°
2026-05-04 13:01 39.61579 -73.99421 16910 ft 331 kts 233°
2026-05-04 13:01 39.60116 -74.01712 16448 ft 329 kts 233°
2026-05-04 13:01 39.58663 -74.03992 15988 ft 327 kts 233°
2026-05-04 13:02 39.57222 -74.06255 15537 ft 325 kts 233°
2026-05-04 13:02 39.55785 -74.08509 15087 ft 324 kts 233°
2026-05-04 13:02 39.54361 -74.10762 14637 ft 322 kts 235°
2026-05-04 13:02 39.53235 -74.13234 14174 ft 317 kts 248°
2026-05-04 13:03 39.52602 -74.15945 13855 ft 313 kts 261°
2026-05-04 13:03 39.52460 -74.18756 13660 ft 313 kts 271°
2026-05-04 13:03 39.52524 -74.21572 13441 ft 313 kts 271°
2026-05-04 13:03 39.52580 -74.24386 13226 ft 312 kts 271°
2026-05-04 13:04 39.52630 -74.27189 13007 ft 311 kts 271°
2026-05-04 13:04 39.52680 -74.29978 12796 ft 309 kts 271°
2026-05-04 13:04 39.52729 -74.32757 12582 ft 308 kts 270°
2026-05-04 13:04 39.52778 -74.35524 12371 ft 307 kts 270°
2026-05-04 13:05 39.52828 -74.38281 12165 ft 306 kts 270°
2026-05-04 13:05 39.52875 -74.41030 11952 ft 305 kts 270°
2026-05-04 13:05 39.52921 -74.43766 11739 ft 303 kts 270°
2026-05-04 13:05 39.52968 -74.46489 11528 ft 302 kts 270°
2026-05-04 13:06 39.53016 -74.49199 11322 ft 300 kts 270°
2026-05-04 13:06 39.53064 -74.51900 11112 ft 299 kts 270°
2026-05-04 13:06 39.53111 -74.54585 10906 ft 298 kts 270°
2026-05-04 13:06 39.53156 -74.57258 10704 ft 296 kts 270°
2026-05-04 13:07 39.53201 -74.59918 10500 ft 295 kts 270°
2026-05-04 13:07 39.53244 -74.62531 10342 ft 284 kts 270°
2026-05-04 13:07 39.53284 -74.65031 10220 ft 272 kts 270°
2026-05-04 13:07 39.53322 -74.67438 10030 ft 264 kts 270°
2026-05-04 13:08 39.53361 -74.69788 9856 ft 259 kts 270°
2026-05-04 13:08 39.53397 -74.72119 9765 ft 259 kts 270°
2026-05-04 13:08 39.53432 -74.74444 9630 ft 258 kts 270°
2026-05-04 13:08 39.53466 -74.76766 9465 ft 258 kts 270°
2026-05-04 13:09 39.53505 -74.79084 9285 ft 257 kts 270°
2026-05-04 13:09 39.53544 -74.81402 9090 ft 257 kts 270°
2026-05-04 13:09 39.53581 -74.83716 8927 ft 257 kts 270°
2026-05-04 13:09 39.53616 -74.86024 8745 ft 256 kts 269°
2026-05-04 13:10 39.53638 -74.87553 8626 ft 256 kts 269°
2026-05-04 13:10 39.53672 -74.89852 8445 ft 256 kts 269°
2026-05-04 13:10 39.53706 -74.92154 8271 ft 256 kts 269°
2026-05-04 13:10 39.53823 -74.94450 8090 ft 256 kts 279°
2026-05-04 13:11 39.54457 -74.96614 7910 ft 261 kts 297°
2026-05-04 13:11 39.55638 -74.98425 7726 ft 267 kts 315°
2026-05-04 13:11 39.57150 -74.99854 7538 ft 270 kts 320°
2026-05-04 13:11 39.58578 -75.01177 7357 ft 269 kts 320°
2026-05-04 13:12 39.60101 -75.02591 7171 ft 270 kts 319°
2026-05-04 13:12 39.61626 -75.04011 6978 ft 270 kts 319°
2026-05-04 13:12 39.63147 -75.05431 6790 ft 269 kts 319°
2026-05-04 13:12 39.64666 -75.06852 6583 ft 269 kts 319°
2026-05-04 13:13 39.66257 -75.08137 6398 ft 274 kts 330°
2026-05-04 13:13 39.68108 -75.08804 6194 ft 281 kts 349°
2026-05-04 13:13 39.70071 -75.08723 5991 ft 285 kts
2026-05-04 13:13 39.72008 -75.08117 5784 ft 288 kts 19°
2026-05-04 13:14 39.73769 -75.06856 5574 ft 291 kts 36°
2026-05-04 13:14 39.75232 -75.05037 5379 ft 292 kts 47°
2026-05-04 13:14 39.76602 -75.03090 5161 ft 291 kts 47°
2026-05-04 13:14 39.77967 -75.01147 4971 ft 291 kts 47°
2026-05-04 13:15 39.79325 -74.99208 4766 ft 289 kts 47°
2026-05-04 13:15 39.80652 -74.97312 4617 ft 278 kts 47°
2026-05-04 13:15 39.81935 -74.95480 4382 ft 271 kts 47°
2026-05-04 13:15 39.83194 -74.93686 4113 ft 265 kts 47°
2026-05-04 13:16 39.84493 -74.92035 3863 ft 258 kts 31°
2026-05-04 13:16 39.86122 -74.91288 3603 ft 244 kts
2026-05-04 13:16 39.87772 -74.91445 3348 ft 235 kts 341°
2026-05-04 13:16 39.89269 -74.92203 3111 ft 227 kts 323°
2026-05-04 13:17 39.90474 -74.93424 3003 ft 216 kts 307°
2026-05-04 13:17 39.91351 -74.94974 3006 ft 210 kts 292°
2026-05-04 13:17 39.91876 -74.96719 3012 ft 206 kts 278°
2026-05-04 13:17 39.92046 -74.98511 2998 ft 193 kts 265°
2026-05-04 13:18 39.91896 -75.00185 3000 ft 181 kts 253°
2026-05-04 13:18 39.91601 -75.01675 3007 ft 173 kts 252°
2026-05-04 13:18 39.91337 -75.03016 2959 ft 164 kts 251°
2026-05-04 13:18 39.91056 -75.04445 2814 ft 162 kts 252°
2026-05-04 13:19 39.90778 -75.05857 2610 ft 159 kts 252°
2026-05-04 13:19 39.90501 -75.07255 2409 ft 159 kts 251°
2026-05-04 13:19 39.90226 -75.08647 2194 ft 158 kts 251°
2026-05-04 13:19 39.89954 -75.10025 1980 ft 156 kts 251°
2026-05-04 13:20 39.89684 -75.11391 1769 ft 155 kts 252°
2026-05-04 13:20 39.89414 -75.12754 1584 ft 155 kts 251°
2026-05-04 13:20 39.89167 -75.14006 1362 ft 145 kts 251°
2026-05-04 13:20 39.88933 -75.15193 1180 ft 130 kts 250°
2026-05-04 13:21 39.88714 -75.16296 1000 ft 122 kts 251°
2026-05-04 13:21 39.88498 -75.17371 816 ft 122 kts 251°
2026-05-04 13:21 39.88291 -75.18429 660 ft 120 kts 251°
2026-05-04 13:21 39.88079 -75.19499 473 ft 122 kts 251°
2026-05-04 13:22 39.87864 -75.20563 322 ft 121 kts 252°
2026-05-04 13:22 39.87654 -75.21625 174 ft 120 kts 252°
2026-05-04 13:22 39.87449 -75.22671 48 ft 118 kts 252°
2026-05-04 13:22 39.87273 -75.23536 27 ft 64 kts 256°
2026-05-04 13:23 39.87218 -75.23815 26 ft 21 kts 255°
2026-05-04 13:23 39.87183 -75.23986 28 ft 16 kts 254°
2026-05-04 13:23 39.87166 -75.24083 26 ft 9 kts 272°
2026-05-04 13:23 39.87205 -75.24138 31 ft 5 kts 334°
2026-05-04 13:24 39.87239 -75.24157 26 ft 6 kts 336°
2026-05-04 13:24 39.87287 -75.24186 30 ft 9 kts 334°
2026-05-04 13:24 39.87335 -75.24219 29 ft 8 kts 333°
2026-05-04 13:25 39.87392 -75.24234 29 ft 3 kts 355°
2026-05-04 13:25 39.87424 -75.24237 27 ft 6 kts 354°
2026-05-04 13:25 39.87450 -75.24242 29 ft 1 kts 350°
2026-05-04 13:25 39.87460 -75.24237 27 ft 2 kts 33°
2026-05-04 13:26 39.87464 -75.24217 26 ft 3 kts 74°
2026-05-04 13:26 39.87469 -75.24194 26 ft 1 kts 74°
2026-05-04 13:26 39.87471 -75.24183 26 ft 1 kts 75°
2026-05-04 13:26 39.87472 -75.24179 26 ft 0 kts 75°
2026-05-04 13:27 39.87473 -75.24176 26 ft 0 kts 75°